[[{"header":{"parameterUnit":"m.s-1","parameterCategory":1,"la1":30.2991,"la2":30.254,"lo1":-89.0895,"lo2":-89.0444,"dy":0.0017,"dx":0.0017,"nx":28,"ny":28,"refTime":"2024-12-16T09:00:00:Z","depth":0,"parameterNumber":2,"parameterNumberName":"U-component_of_WINDS"},"data":[0,0,0,0,0,0,0,0,0,0,0,0,0,0,0,0,0,0,0,0,0,0,0,0,0,0,0,0,0,0,0,0,0,0,0,0,0,0,0,0,0,0,0,0,0,0,0,0,0,0,0,0,0,0,0,0,0,0,-3.6919,-3.6919,0,-3.6907,-3.6907,-3.6907,-3.6822,-3.682,-3.6818,-3.6816,-3.6806,-3.6808,-3.681,0,0,0,0,0,0,0,0,0,0,0,0,0,-3.6871,-3.6873,-3.6919,-3.6919,-3.6918,-3.6907,-3.6907,-3.6907,-3.6823,-3.682,-3.6818,-3.6815,-3.6806,-3.6808,-3.681,0,0,0,0,0,0,0,0,0,0,0,0,0,-3.6879,-3.6873,-3.6919,-3.6875,-3.6871,-3.6907,-3.6907,-3.6907,-3.6823,-3.682,-3.6817,-3.6814,-3.6805,-3.6808,-3.681,-3.6888,0,0,-3.6818,-3.6819,0,0,0,0,0,0,0,0,-3.6879,-3.6881,-3.6882,-3.6878,-3.6874,-3.6863,-3.6886,-3.69,-3.6824,-3.6841,-3.6816,-3.6813,-3.6828,-3.6828,-3.6833,-3.6887,-3.6887,-3.6818,-3.6819,-3.682,-3.6821,0,0,0,0,0,0,0,-3.6878,-3.6881,-3.6914,-3.6882,-3.6877,-3.6857,-3.6855,-3.6889,-3.6852,-3.684,-3.6833,-3.6833,-3.6825,-3.6831,-3.6832,-3.6887,-3.6818,-3.682,-3.6822,-3.6823,-3.7006,-3.7009,0,0,0,0,0,0,-3.6884,-3.6881,-3.6914,-3.6914,-3.6869,-3.686,-3.6858,-3.687,-3.6852,-3.6846,-3.6836,-3.6829,-3.6828,-3.6829,-3.6831,-3.6922,-3.682,-3.6823,-3.6824,-3.7003,-3.7007,-3.701,0,0,0,0,0,0,-3.6883,-3.6887,-3.6915,-3.6896,-3.6898,-3.6865,-3.6878,-3.6871,-3.6876,-3.6849,-3.6842,-3.6848,-3.6826,-3.6828,-3.6874,-3.692,-3.6824,-3.6826,-3.6999,-3.7004,-3.7009,-3.7103,0,0,0,0,0,0,-3.6882,-3.6888,-3.6916,-3.6897,-3.6899,-3.6957,-3.6881,-3.6873,-3.6881,-3.6872,-3.6858,-3.6853,-3.6823,-3.6871,-3.6877,-3.6922,-3.6828,-3.6994,-3.7001,-3.7007,-3.7096,-3.7111,-3.7124,0,0,0,0,0,-3.6881,-3.6943,-3.6918,-3.6922,-3.6934,-3.696,-3.6961,-3.6925,-3.6885,-3.6913,-3.6896,-3.6854,-3.6915,-3.6877,-3.6882,-3.6929,-3.6991,-3.6999,-3.7007,-3.709,-3.7108,-3.7123,0,0,0,0,0,0,-3.6968,-3.694,-3.6911,-3.6969,-3.6968,-3.6946,-3.6981,-3.6945,-3.6956,-3.6947,-3.6903,-3.69,-3.6954,-3.6946,-3.6904,-3.7004,-3.6946,-3.6955,-3.7007,-3.7024,-3.7038,-3.7039,-3.683,0,0,0,0,0,-3.6994,-3.7017,-3.6992,-3.7045,-3.7046,-3.7014,-3.7024,-3.6997,-3.6993,-3.6992,-3.6978,-3.6978,-3.6997,-3.701,-3.7026,-3.7095,-3.7091,-3.713,-3.7144,-3.7155,-3.7164,-3.7201,-3.7218,-3.7035,-3.7035,-3.7035,0,0,-3.7048,-3.7035,-3.7053,-3.7063,-3.7058,-3.7084,-3.7014,-3.7044,-3.7063,-3.6997,-3.704,-3.7031,-3.7027,-3.7085,-3.711,-3.708,-3.7214,-3.7165,-3.7175,-3.7176,-3.7211,-3.7228,-3.7243,-3.704,-3.704,-3.7039,0,0,-3.7159,-3.7152,-3.7196,-3.7194,-3.7188,-3.7167,-3.7178,-3.7162,-3.7153,-3.7195,-3.7147,-3.717,-3.7203,-3.7203,-3.7208,-3.7322,-3.7284,-3.7329,-3.7402,-3.7439,-3.7453,-3.7465,-3.7507,-3.7522,-3.7337,-3.7338,-3.7338,0,-3.7227,-3.7263,-3.7224,-3.7258,-3.7264,-3.7206,-3.7252,-3.7251,-3.7252,-3.7258,-3.7225,-3.7267,-3.726,-3.7318,-3.7347,-3.7352,-3.7364,-3.733,-3.7454,-3.7466,-3.7477,-3.7516,-3.7532,-3.7343,-3.7343,-3.7342,-3.7342,0,-3.7348,-3.7374,-3.7411,-3.7413,-3.7424,-3.7463,-3.7431,-3.7447,-3.7419,-3.7402,-3.7448,-3.7438,-3.7452,-3.7464,-3.7437,-3.7519,-3.7501,-3.7462,-3.7402,-3.7501,-3.7537,-3.7552,-3.7351,-3.7349,-3.7347,-3.7346,0,0,-3.7511,-3.7493,-3.7507,-3.7508,-3.7499,-3.7519,-3.7557,-3.757,-3.7585,-3.7588,-3.762,-3.7651,-3.7615,-3.762,-3.7593,-3.7626,-3.7718,-3.7582,-3.7582,-3.7608,-3.781,-3.7839,-3.7857,-3.7694,-3.7696,-3.7698,-3.781,0,-3.7619,-3.7681,-3.7648,-3.7716,-3.7741,-3.7687,-3.7721,-3.772,-3.7706,-3.7725,-3.771,-3.7733,-3.7683,-3.7686,-3.7716,-3.7701,-3.7758,-3.7692,-3.7723,-3.7725,-3.7725,-3.7876,-3.7906,-3.8012,-3.7824,-3.7826,-3.7828,0,-3.7751,-3.776,-3.7831,-3.7819,-3.7828,-3.7858,-3.7869,-3.7888,-3.7887,-3.7875,-3.7882,-3.7848,-3.7886,-3.7828,-3.788,-3.7836,-3.7848,-3.7842,-3.7846,-3.7847,-3.7782,-3.7881,-3.8045,-3.8061,-3.785,-3.7848,-3.7846,0,-3.7864,-3.7894,-3.794,-3.7943,-3.793,-3.7953,-3.7949,-3.7944,-3.7955,-3.7965,-3.7972,-3.7986,-3.7994,-3.8007,-3.7979,-3.7939,-3.8036,-3.7975,-3.8027,-3.8028,-3.8049,-3.8048,-3.8217,-3.8057,-3.8057,-3.8057,-3.8056,0,-3.7987,-3.8032,-3.7991,-3.802,-3.807,-3.8032,-3.8083,-3.8073,-3.807,-3.8097,-3.8052,-3.8078,-3.8039,-3.8062,-3.804,-3.8088,-3.8092,-3.8084,-3.8077,-3.8087,-3.8088,-3.8093,-3.8085,-3.8061,-3.806,-3.8059,-3.8058,0,-3.812,-3.8095,-3.8142,-3.8127,-3.8124,-3.8162,-3.8149,-3.8176,-3.8159,-3.8194,-3.82,-3.8174,-3.8199,-3.8172,-3.8195,-3.8181,-3.8245,-3.8228,-3.8245,-3.824,-3.8294,-3.8289,-3.8472,-3.8494,-3.832,-3.8322,-3.8324,0,-3.82,-3.8234,-3.8223,-3.8237,-3.8236,-3.826,-3.8271,-3.8237,-3.825,-3.8253,-3.828,-3.8301,-3.8315,-3.8358,-3.8342,-3.836,-3.8343,-3.8406,-3.8345,-3.8355,-3.8344,-3.8342,-3.8346,-3.8418,-3.842,-3.8422,-3.8423,0,-3.8344,-3.833,-3.8348,-3.8362,-3.8377,-3.8386,-3.8392,-3.8407,-3.8371,-3.8389,-3.8414,-3.8426,-3.845,-3.8472,-3.8486,-3.8482,-3.8448,-3.8443,-3.8456,-3.8466,-3.8475,-3.8471,-3.8278,-3.8438,-3.8437,-3.8435,-3.8435,-3.8434,-3.8453,-3.8481,-3.8478,-3.85,-3.8501,-3.8508,-3.8533,-3.852,-3.854,-3.8557,-3.8536,-3.8567,-3.8567,-3.8582,-3.8583,-3.8608,-3.8581,-3.86,-3.8605,-3.861,-3.8618,-3.8472,-3.861,-3.861,-3.861,-3.8609,-3.8609,0,-3.8595,-3.8591,-3.8611,-3.8622,-3.8639,-3.8605,-3.8611,-3.8628,-3.8656,-3.8659,-3.8675,-3.8705,-3.8727,-3.8714,-3.8733,-3.8755,-3.874,-3.8761,-3.8759,-3.8759,-3.8641,-3.8627,-3.8774,-3.8774,-3.8774,-3.8774,-3.8773,-3.8773,-3.867,-3.8716,-3.8703,-3.875,-3.8746,-3.8776,-3.8783,-3.879,-3.8792,-3.8827,-3.8845,-3.8837,-3.8834,-3.8853,-3.8872,-3.8867,-3.8877,-3.8904,-3.8894,-3.8784,-3.8767,-3.8752,-3.8739,-3.8906,-3.8907,-3.901,-3.9011,-3.9012]},{"header":{"parameterUnit":"m.s-1","parameterCategory":1,"la1":30.2991,"la2":30.254,"lo1":-89.0895,"lo2":-89.0444,"dy":0.0017,"dx":0.0017,"nx":28,"ny":28,"refTime":"2024-12-16T09:00:00:Z","depth":0,"parameterNumber":3,"parameterNumberName":"V-component_of_WINDS"},"data":[0,0,0,0,0,0,0,0,0,0,0,0,0,0,0,0,0,0,0,0,0,0,0,0,0,0,0,0,0,0,0,0,0,0,0,0,0,0,0,0,0,0,0,0,0,0,0,0,0,0,0,0,0,0,0,0,0,0,0.0212,0.0212,0,0.0236,0.0236,0.0236,0.028,0.0281,0.0281,0.0282,0.0306,0.0306,0.0306,0,0,0,0,0,0,0,0,0,0,0,0,0,0.0206,0.0206,0.0212,0.0212,0.0212,0.0235,0.0236,0.0236,0.028,0.0281,0.0282,0.0283,0.0306,0.0306,0.0306,0,0,0,0,0,0,0,0,0,0,0,0,0,0.0217,0.0206,0.0212,0.0237,0.0239,0.0235,0.0236,0.0236,0.0279,0.0281,0.0282,0.0283,0.0306,0.0306,0.0306,0.0279,0,0,0.0305,0.0305,0,0,0,0,0,0,0,0,0.0217,0.0217,0.0233,0.0235,0.0238,0.0256,0.0243,0.025,0.0279,0.0264,0.0282,0.0284,0.0288,0.029,0.0291,0.028,0.0281,0.0305,0.0305,0.0305,0.0305,0,0,0,0,0,0,0,0.0216,0.0217,0.0221,0.0233,0.0236,0.0248,0.0251,0.0244,0.0269,0.0266,0.0269,0.0271,0.029,0.0291,0.0292,0.0281,0.0305,0.0305,0.0305,0.0304,0.0252,0.0251,0,0,0,0,0,0,0.0211,0.0216,0.0221,0.0222,0.023,0.0247,0.025,0.0249,0.0269,0.0273,0.027,0.0273,0.0291,0.0292,0.0293,0.0265,0.0305,0.0304,0.0304,0.0254,0.0252,0.0251,0,0,0,0,0,0,0.0211,0.0211,0.022,0.022,0.0222,0.0246,0.0244,0.0249,0.025,0.0272,0.0277,0.0267,0.0292,0.0293,0.0283,0.0266,0.0304,0.0304,0.0255,0.0253,0.0252,0.0207,0,0,0,0,0,0,0.0211,0.0211,0.02,0.0219,0.0222,0.0208,0.0243,0.0248,0.025,0.0254,0.0271,0.0275,0.0293,0.0283,0.0283,0.0267,0.0304,0.0257,0.0254,0.0252,0.021,0.0204,0.0199,0,0,0,0,0,0.021,0.0186,0.0199,0.02,0.0209,0.0207,0.0208,0.023,0.0248,0.0238,0.0253,0.0274,0.0268,0.0281,0.0281,0.0265,0.0258,0.0255,0.0252,0.0213,0.0205,0.0199,0,0,0,0,0,0,0.0163,0.0189,0.0204,0.0185,0.0194,0.0214,0.0202,0.0221,0.0225,0.0229,0.0256,0.0259,0.0246,0.0254,0.0269,0.0242,0.0267,0.0264,0.0237,0.023,0.0224,0.0222,0.0304,0,0,0,0,0,0.0151,0.0147,0.017,0.0151,0.0155,0.0178,0.0178,0.0194,0.0204,0.0208,0.0222,0.0231,0.0232,0.0231,0.0232,0.0212,0.0217,0.0201,0.0195,0.0191,0.0188,0.018,0.0174,0.0242,0.0242,0.0242,0,0,0.0125,0.0139,0.0134,0.0142,0.0151,0.0147,0.018,0.0174,0.0172,0.0207,0.0198,0.0209,0.0221,0.0206,0.02,0.0213,0.0171,0.0187,0.0183,0.0183,0.0177,0.017,0.0165,0.024,0.024,0.024,0,0,0.0076,0.0085,0.0072,0.0081,0.0094,0.011,0.0107,0.0125,0.0134,0.0126,0.0153,0.0151,0.015,0.0159,0.0163,0.0121,0.0141,0.012,0.009,0.0083,0.0077,0.0073,0.0059,0.0054,0.0118,0.0117,0.0117,0,0.0042,0.0038,0.0063,0.0056,0.0059,0.0092,0.008,0.0087,0.0099,0.0101,0.0116,0.0118,0.0128,0.0117,0.0107,0.0109,0.0107,0.0118,0.0076,0.0072,0.0068,0.0055,0.005,0.0115,0.0115,0.0115,0.0116,0,-0.0004,-0.0007,-0.0019,-0.0007,-0.0004,-0.0014,0.001,0.001,0.0027,0.0042,0.0035,0.0048,0.0055,0.0053,0.0069,0.0045,0.0053,0.0071,0.0096,0.0058,0.0047,0.0043,0.0111,0.0112,0.0113,0.0114,0,0,-0.0083,-0.0054,-0.0059,-0.0052,-0.0033,-0.0035,-0.0042,-0.0036,-0.0036,-0.0028,-0.0032,-0.0031,-0.0013,-0.0008,0.0009,0.0002,-0.0029,0.0022,0.0023,0.0013,-0.0053,-0.0066,-0.0073,-0.0016,-0.0017,-0.0017,-0.0053,0,-0.0127,-0.0138,-0.0114,-0.0131,-0.0132,-0.01,-0.0106,-0.0095,-0.008,-0.0079,-0.0063,-0.0062,-0.0039,-0.0036,-0.0041,-0.0025,-0.0042,-0.0022,-0.0019,-0.0019,-0.0022,-0.0079,-0.0094,-0.0129,-0.0058,-0.0059,-0.0059,0,-0.0181,-0.0174,-0.019,-0.0168,-0.0168,-0.0173,-0.0164,-0.0163,-0.0149,-0.0138,-0.0131,-0.011,-0.0114,-0.0089,-0.0094,-0.008,-0.0077,-0.0068,-0.0069,-0.0068,-0.0041,-0.0078,-0.0139,-0.0144,-0.0066,-0.0066,-0.0065,0,-0.0235,-0.023,-0.0238,-0.0233,-0.0208,-0.0212,-0.0202,-0.0186,-0.0183,-0.0174,-0.0171,-0.0164,-0.0159,-0.0153,-0.013,-0.0115,-0.0136,-0.011,-0.0126,-0.0127,-0.0132,-0.0132,-0.0193,-0.0132,-0.0132,-0.0132,-0.0132,0,-0.0287,-0.0298,-0.0261,-0.0267,-0.0277,-0.0249,-0.0259,-0.0246,-0.0232,-0.0233,-0.0204,-0.0206,-0.0175,-0.0172,-0.0154,-0.0159,-0.0158,-0.0148,-0.0143,-0.015,-0.0151,-0.0148,-0.0144,-0.0133,-0.0133,-0.0132,-0.0132,0,-0.035,-0.0326,-0.0332,-0.0307,-0.0301,-0.031,-0.0288,-0.0291,-0.0274,-0.0275,-0.0274,-0.0247,-0.0242,-0.0218,-0.0208,-0.0195,-0.0206,-0.0197,-0.0211,-0.0208,-0.0224,-0.0223,-0.0285,-0.0291,-0.0227,-0.0227,-0.0228,0,-0.0384,-0.0391,-0.0366,-0.0364,-0.0355,-0.0353,-0.0348,-0.032,-0.0317,-0.0299,-0.0304,-0.0297,-0.0289,-0.0283,-0.0262,-0.0254,-0.0243,-0.0266,-0.0242,-0.0248,-0.0242,-0.0241,-0.0241,-0.0271,-0.0272,-0.0272,-0.0273,0,-0.0446,-0.0433,-0.0428,-0.0418,-0.0413,-0.0404,-0.0394,-0.0394,-0.0362,-0.0359,-0.0354,-0.0348,-0.0336,-0.0329,-0.0317,-0.0305,-0.0283,-0.028,-0.0283,-0.029,-0.0298,-0.0292,-0.0224,-0.0279,-0.0278,-0.0278,-0.0278,-0.0277,-0.0495,-0.0499,-0.0481,-0.0475,-0.0463,-0.0453,-0.0454,-0.0436,-0.0431,-0.0419,-0.0402,-0.0398,-0.0381,-0.0362,-0.0352,-0.0348,-0.0336,-0.034,-0.0341,-0.0343,-0.0346,-0.0299,-0.0346,-0.0345,-0.0345,-0.0345,-0.0345,0,-0.0554,-0.0541,-0.0536,-0.052,-0.0515,-0.0494,-0.0481,-0.0478,-0.0474,-0.046,-0.0453,-0.0445,-0.0437,-0.0415,-0.0404,-0.0405,-0.0394,-0.0403,-0.0402,-0.0399,-0.0358,-0.0356,-0.0411,-0.0411,-0.0411,-0.0411,-0.0411,-0.0411,-0.0585,-0.0589,-0.0574,-0.0572,-0.0558,-0.0553,-0.0547,-0.0537,-0.0525,-0.0517,-0.051,-0.0495,-0.0477,-0.0464,-0.0455,-0.0449,-0.0446,-0.0457,-0.0448,-0.0409,-0.0403,-0.0397,-0.0394,-0.0457,-0.0457,-0.0489,-0.0489,-0.049]}]]